Beaufort, NC

5:35 PM EDT on August 17, 2019 (GMT -0400)
Smith

Weather History for KMRH - May, 2019

Change the Weather History Date:

Monday, May 27, 2019

  Actual Average Record
Temperature  
Mean Temperature 82 °F -  
Max Temperature 91 °F 80 °F 88 °F (1953)
Min Temperature 73 °F 61 °F 43 °F (1969)
Cooling Degree Days 17    
Growing Degree Days 32 (Base 50)    
Moisture  
Dew Point 71 °F    
Average Humidity 73    
Maximum Humidity 100    
Minimum Humidity 44    
Precipitation  
Precipitation 0.00 in - - ()
Sea Level Pressure  
Sea Level Pressure 29.93 in    
Wind  
Wind Speed 5 mph (SW)    
Max Wind Speed 14 mph    
Max Gust Speed -    
Visibility 8 miles    
Events      
Averages and records for this station are not official NWS values.
T = Trace of Precipitation, MM = Missing Value Source: NWS Daily Summary

Daily Weather History Graph

Daily Weather History Graph

Search for Another Location

Airport or City:

Astronomy

May. 27, 2019 Rise Set
Actual Time 5:56 AM EDT 8:11 PM EDT
Civil Twilight 5:27 AM EDT 8:40 PM EDT
Nautical Twilight 4:52 AM EDT 9:15 PM EDT
Astronomical Twilight 4:14 AM EDT 9:53 PM EDT
Moon 2:18 AM EDT (5/27) 1:41 PM EDT (5/27)
Length of Visible Light 15h 12m
Length of Day
14h 14m
Last Quarter, 41% of the Moon is Illuminated
May 27
Last Quarter
Jun 3
New
Jun 10
First Quarter
Jun 17
Full
Jun 25
Last Quarter

Hourly Weather History & Observations

Time (EDT) Temp. Heat Index Dew Point Humidity Pressure Visibility Wind Dir Wind Speed Gust Speed Precip Events Conditions
12:58 AM 79.0 °F - 73.9 °F 84% 29.96 in 9.0 mi WSW 4.6 mph - N/A   Scattered Clouds
1:58 AM 78.1 °F - 73.9 °F 87% 29.94 in 7.0 mi Calm Calm - N/A   Clear
2:53 AM 75.2 °F - 73.4 °F 94% 29.92 in 2.0 mi SW 4.6 mph - N/A   Clear
2:58 AM 73.9 °F - 72.0 °F 93% 29.92 in 5.0 mi Calm Calm - N/A   Clear
3:56 AM 73.4 °F - 73.4 °F 100% 29.91 in 1.8 mi Calm Calm - N/A   Clear
3:58 AM 75.0 °F - 73.0 °F 94% 29.91 in 1.5 mi Calm Calm - N/A   Clear
4:11 AM 75.0 °F - 73.0 °F 94% 29.91 in 3.0 mi Calm Calm - N/A   Clear
4:58 AM 75.9 °F - 73.0 °F 91% 29.92 in 7.0 mi SW 4.6 mph - N/A   Clear
5:58 AM 75.0 °F - 72.0 °F 90% 29.93 in 7.0 mi SW 9.2 mph - N/A   Clear
6:58 AM 78.1 °F - 70.0 °F 76% 29.95 in 10.0 mi NW 9.2 mph - N/A   Clear
7:58 AM 79.0 °F - 69.1 °F 72% 29.95 in 10.0 mi WNW 5.8 mph - N/A   Clear
8:58 AM 82.0 °F 84.9 °F 68.0 °F 62% 29.95 in 10.0 mi NW 5.8 mph - N/A   Clear
9:58 AM 86.0 °F 89.4 °F 68.0 °F 55% 29.95 in 10.0 mi NNW 6.9 mph - N/A   Clear
10:58 AM 89.1 °F 91.3 °F 66.0 °F 46% 29.95 in 10.0 mi NW 9.2 mph - N/A   Clear
11:58 AM 91.0 °F 93.8 °F 66.0 °F 44% 29.94 in 10.0 mi NNW 8.1 mph - N/A   Clear
12:58 PM 89.1 °F 96.0 °F 72.0 °F 57% 29.91 in 10.0 mi SSW 10.4 mph - N/A   Clear
1:58 PM 88.0 °F 93.8 °F 71.1 °F 57% 29.91 in 10.0 mi SSW 13.8 mph - N/A   Clear
2:58 PM 88.0 °F 92.9 °F 70.0 °F 55% 29.90 in 10.0 mi SSW 10.4 mph - N/A   Scattered Clouds
3:58 PM 87.1 °F 92.0 °F 70.0 °F 57% 29.88 in 10.0 mi SSW 12.7 mph - N/A   Mostly Cloudy
4:58 PM 84.9 °F 90.1 °F 71.1 °F 63% 29.88 in 10.0 mi SSW 8.1 mph - N/A   Partly Cloudy
5:58 PM 86.0 °F 91.5 °F 71.1 °F 61% 29.89 in 10.0 mi WSW 8.1 mph - N/A   Partly Cloudy
6:58 PM 82.9 °F 88.0 °F 72.0 °F 69% 29.91 in 10.0 mi SE 6.9 mph - N/A   Clear
7:58 PM 80.1 °F 83.8 °F 72.0 °F 76% 29.93 in 10.0 mi East 10.4 mph - N/A   Clear
8:58 PM 78.1 °F - 71.1 °F 79% 29.94 in 10.0 mi East 8.1 mph - N/A   Clear
9:58 PM 78.1 °F - 70.0 °F 76% 29.95 in 10.0 mi East 5.8 mph - N/A   Clear
10:58 PM 77.0 °F - 68.0 °F 74% 29.95 in 10.0 mi East 6.9 mph - N/A   Clear
11:58 PM 77.0 °F - 68.0 °F 74% 29.94 in 10.0 mi East 5.8 mph - N/A   Clear